Retour au catalogue

STARLINK-34359

ActifCommunicationsVLEO
NORAD 64280·PAYLOAD·🇺🇸 United States

Lancé Jun 4, 2025 depuis Vandenberg Space Force Base

Loading…

Prochains Passages (prochaines 24 heures)

TLE

FraisSource: CelesTrak SupGP

Époque: Sep 15, 2026, 03:37 UTC

1 64280C 25120AA  26258.15118056  .00038122  00000+0  11263-2 0  2588
2 64280  53.1587 314.6996 0001170  92.6047 179.5725 15.34371987    11

Suivez STARLINK-34359 en temps réel avec AllMySat

Download on the App Store